Home > Weather > Ittoqqortoormiit > Past weeks

Flag for Greenland Past Weather in Ittoqqortoormiit, Greenland — Yesterday and Last 2 Weeks

Now
51 °F

Sunny.


Feels Like: 50 °F
Forecast: 38 / 46 °F
Wind: 5 mph from South

Location: Scoresbysund

Current Time: Jul 28, 2016 at 6:30:32 PM

Latest Report: Jul 28, 2016 at 3:00 PM


Visibility: 25 mi

Pressure: 30.19 "Hg

Humidity: 68%

Dew Point: 41 °F

Location of IttoqqortoormiitLocation

Past Weather in Ittoqqortoormiit — Graph

°F

Ittoqqortoormiit Temperature Yesterday

Maximum temperature yesterday: 55 °F (at 9:00 PM)
Minimum temperature yesterday: 41 °F (at 5:00 AM)
Average temperature yesterday: 47 °F

High & Low Weather Summary for the Past Weeks

 TemperatureHumidityPressure
High61 °F (Jul 22, 6:00 PM)100% (Jul 25, 12:00 AM)30.22 "Hg (Jul 25, 12:00 AM)
Low37 °F (Jul 17, 2:00 AM)32% (Jul 22, 9:00 PM)29.77 "Hg (Jul 17, 1:00 AM)
Average47 °F75%29.98 "Hg
* Reported Jul 13 6:00 PM — Jul 28 3:00 PM, Ittoqqortoormiit, Weather by CustomWeather, © 2016

Note: Actual official high and low records may vary slightly from our data, if they occured in-between our weather recording intervals... More about our weather records

Advertising

Ittoqqortoormiit Weather History for the Previous 24 Hours

Scroll right to see more
 ConditionsComfort  
Time TempWeatherWind HumidityBarometerVisibility
3:00 PM
Thu, Jul 28
51 °FSunny.5 mph68%30.19 "Hg25 mi
1:00 PM47 °FSunny.5 mph76%30.18 "Hg28 mi
12:00 PM48 °FSunny.6 mph73%30.18 "Hg22 mi
11:00 AM48 °FSunny.8 mph75%30.17 "Hg25 mi
10:00 AM46 °FPassing clouds.8 mph77%30.16 "Hg25 mi
9:00 AM45 °FSunny.7 mph81%30.16 "Hg12 mi
8:00 AM45 °FSunny.7 mph80%30.14 "Hg31 mi
7:00 AM44 °FSunny.7 mph82%30.12 "Hg31 mi
6:00 AM43 °FPassing clouds.7 mph85%30.11 "Hg31 mi
5:00 AM43 °FPassing clouds.3 mph85%30.09 "Hg31 mi
4:00 AM44 °FSunny.1 mph87%30.08 "Hg31 mi
3:00 AM44 °FSunny.1 mph88%30.07 "Hg31 mi
2:00 AM46 °FSunny.1 mph85%30.07 "Hg31 mi
1:00 AM47 °FSunny.2 mph86%30.06 "Hg31 mi
12:00 AM49 °FSunny.1 mph78%30.06 "Hg31 mi
11:00 PM
Wed, Jul 27
50 °FSunny.1 mph76%30.06 "Hg31 mi
10:00 PM55 °FSunny.1 mph64%30.06 "Hg31 mi
9:00 PM55 °FSunny.1 mph66%30.07 "Hg31 mi
8:00 PM53 °FSunny.3 mph71%30.07 "Hg31 mi
7:00 PM51 °FSunny.5 mph74%30.09 "Hg31 mi
6:00 PM52 °FSunny.5 mph74%30.09 "Hg28 mi
Weather by CustomWeather, © 2016

See weather overviewHow to use our weather pages